Regional Weather Roundup
Issued by NWS

Home | Current Version | Previous Version | Text Only | Print | Product List | Glossary Off
Versions: 1 2 3 4 5 6 7 8 9 10 11 12 13 14 15 16 17 18 19 20 21 22 23 24 25 26 27 28 29 30 31 32 33 34 35 36 37 38 39 40 41 42 43 44 45 46 47 48 49 50

061
ASUS45 KBOU 240010
RWRCO

WEATHER ROUNDUP FOR COLORADO
NATIONAL WEATHER SERVICE DENVER/BOULDER CO
600 PM MDT WED MAY 23 2018

NOTE: "FAIR" INDICATES FEW OR NO CLOUDS BELOW 12000 FEET WITH NO
SIGNIFICANT WEATHER AND/OR OBSTRUCTIONS TO VISIBILITY.

COZ001>005-013-030-031-240100-
...NORTHWEST COLORADO...

CITY           SKY/WX    TMP DP  RH WIND       PRES   REMARKS
CRAIG          PTSUNNY   68  40  35 W6        30.03F
HAYDEN         FAIR      68  37  32 NW9G20    30.07R
MEEKER         PTSUNNY   73  28  18 SW14G22   30.04R
RANGELY        FAIR      76  33  20 W14G23    29.98R
RABBIT EARS PA FAIR      50  32  50 W8G20     30.29S
STEAMBOAT SPGS FAIR      67  35  30 W12       30.07S
WALDEN         FAIR      63  27  25 W15G23    30.14S
$$

COZ006>008-011-240100-
...WEST CENTRAL VALLEYS...

CITY           SKY/WX    TMP DP  RH WIND       PRES   REMARKS
GRAND JUNCTION FAIR      80  29  15 W5        29.94F
MONTROSE       FAIR      79  15   9 W17G25    30.01R
EAGLE          FAIR      75  24  15 W13       30.05S
RIFLE          FAIR      79  25  13 W15       29.97S
DELTA          FAIR      84  16   8 SW16G22   29.98R
NUCLA          FAIR      77  16  10 SW13G22   30.07S
$$

COZ017>023-064>068-240100-
...SOUTHWEST COLORADO...

CITY           SKY/WX    TMP DP  RH WIND       PRES   REMARKS
DURANGO        FAIR      75  20  12 SW8       30.08F
CORTEZ         FAIR      77  19  11 SW17      30.05S
PAGOSA SPRINGS FAIR      72   9   9 SW13G21   30.15F
TELLURIDE      FAIR      64  16  15 SE15G24   30.24S
WOLF CREEK PAS FAIR      48  18  29 SW15G29   30.45S
$$

COZ009-010-012-014-032>034-037-058>063-240100-
...CENTRAL COLORADO...

CITY           SKY/WX    TMP DP  RH WIND       PRES   REMARKS
ASPEN          FAIR      69  23  17 SW12G17   30.11R
BUENA VISTA    FAIR      70  13  11 S10       30.12S
COPPER MTN     PTSUNNY   46  19  34 W15       30.39S
BERTHOUD PASS  PTSUNNY   39  30  70 W15G37    30.42R
COTTONWOOD PAS PTSUNNY   70  12  11 CALM      30.25S
GUNNISON       FAIR      70  21  15 W13G21    30.11S
GRANBY         FAIR      67  25  20 SW10G17   30.14F
KREMMLING      FAIR      79  14   8 W17G24    30.08F
LEADVILLE      PTSUNNY   58  18  21 W3        30.24R
MONARCH PASS   FAIR      52  16  24 MISG      30.48S
SALIDA         FAIR      73  14  10 SW16      30.15S
SUNLIGHT       CLOUDY    50  23  34 SW10G25   30.34R
WILKERSON PASS PTSUNNY   54  14  20 W5        30.36S
$$

COZ069>075-240100-
...SAN LUIS VALLEY/SANGRE DE CRISTO MOUNTAINS...

CITY           SKY/WX    TMP DP  RH WIND       PRES   REMARKS
ALAMOSA        FAIR      75  16  10 SW23G30   30.09R
DEL NORTE      FAIR      71  18  13 W18       30.14S
LA VETA PASS   FAIR      61  27  27 S18G37    30.38S
SAGUACHE       NOT AVBL
$$

COZ035-036-038>040-240100-
...NORTHERN COLORADO FRONT RANGE...

CITY           SKY/WX    TMP DP  RH WIND       PRES   REMARKS
DENVER INTL AP PTSUNNY   81  37  20 E8        29.93S
AURORA         MOSUNNY   82  35  19 E10       29.93F
FRONT RANGE AP PTSUNNY   82  32  16 E6        29.94F
ERIE MUNI ARPT FAIR      78  38  23 NE5       29.99S
BOULDER MUN AP FAIR      72  46  40 N5        29.95S
CENTENNIAL     FAIR      81  27  14 W9G21     29.94F
BROOMFIELD     PTSUNNY   75  43  31 N9        29.97S
FORT COLLINS   FAIR      70  56  61 NW5       29.96R HAZE
LONGMONT       FAIR      80  46  30 N6        29.95F
$$

COZ041-046-047-076>085-087-088-240100-
...PIKES PEAK/PALMER DIVIDE AND SOUTHERN FOOTHILLS...

CITY           SKY/WX    TMP DP  RH WIND       PRES   REMARKS
COLO. SPRINGS  FAIR      80  36  20 S17       29.98S
A. F. ACADEMY  PTSUNNY   77  26  15 S14       29.99F
SCHRIEVER AFB  NOT AVBL
CHEYENNE MTN   PTSUNNY   72  35  25 SE16G22   29.98S
ELLICOTT         N/A    N/A N/A N/A S23G29    29.98S
FALCON         NOT AVBL
FORT CARSON    FAIR      79  37  22 S20G26    29.94F
LIMON          FAIR      75  42  30 S17G32    29.96S
MONUMENT HILL  FAIR      72  23  16 S10G17    30.06S
CANON CITY     FAIR      86  23  10 SW7       29.90F
WALSENBURG     FAIR      77  50  38 S20G30    29.99S
TRINIDAD       FAIR      68  52  56 SE21G29   30.04F
$$

COZ042>045-048>051-090-091-240100-
...NORTHEAST COLORADO...

CITY           SKY/WX    TMP DP  RH WIND       PRES   REMARKS
GREELEY ARPT   FAIR      82  46  28 CALM      29.92F
AKRON          FAIR      78  54  43 N12       29.92S
BURLINGTON     FAIR      80  47  31 S24G32    29.92F
WRAY           FAIR      86  45  23 S23G30    29.86S
YUMA           FAIR      79  45  29 S12       29.88R
STERLING       FAIR      81  52  36 NE7       29.88S
HOLYOKE        FAIR      84  55  37 SE18G24   29.87S
FORT MORGAN    FAIR      82  37  19 NE5       29.91S
$$

COZ086-089-092>099-240100-
...SOUTHEAST COLORADO...

CITY           SKY/WX    TMP DP  RH WIND       PRES   REMARKS
PUEBLO         FAIR      85  45  24 S21G35    29.87F
LA JUNTA       FAIR      83  49  30 S17G30    29.89F
LAMAR          FAIR      83  53  35 S28G40    29.89F
SPRINGFIELD      N/A     71  57  61 SW17G32   30.01S
$$




USA.gov is the U.S. government's official web portal to all federal, state and local government web resources and services.